When you browse on this site, cookies collect data to enhance your experience and personalize the content and advertising you see.
Visit our Privacy Policy to learn more. By continuing to use the site, you agree to this use of cookies and data.
  • In Lithuania
  • List of Countries
  • For 7 days
  • Water Temperature
  • Satellite Maps
  • Weather Map
  • Weather Widgets
  • user-avatar
    Login

    Hourly Weather Maun

    Today, 13 December, Thursday

    Time Temperature Precipitation Wind Pressure Humidity
    00:00 +28°C° 0 mm 2 mps 682 mmHg 22%
    01:00 +28°C° 0 mm 2 mps 682 mmHg 22%
    02:00 +27°C° 0 mm 2 mps 682 mmHg 23%
    03:00 +26°C° 0 mm 2 mps 682 mmHg 23%
    04:00 +26°C° 0 mm 2 mps 682 mmHg 23%
    05:00 +25°C° 0 mm 2 mps 681 mmHg 24%
    06:00 +27°C° 0 mm 3 mps 682 mmHg 22%
    07:00 +29°C° 0 mm 3 mps 682 mmHg 21%
    08:00 +30°C° 0 mm 3 mps 683 mmHg 19%
    09:00 +34°C° 0 mm 4 mps 683 mmHg 17%
    10:00 +36°C° 0 mm 4 mps 684 mmHg 15%
    11:00 +40°C° 0 mm 4 mps 684 mmHg 13%
    12:00 +41°C° 0 mm 4 mps 684 mmHg 12%
    13:00 +41°C° 0 mm 5 mps 683 mmHg 11%
    14:00 +42°C° 0 mm 5 mps 683 mmHg 11%
    15:00 +42°C° 0 mm 5 mps 683 mmHg 11%
    16:00 +41°C° 0 mm 5 mps 682 mmHg 11%
    17:00 +41°C° 0 mm 5 mps 681 mmHg 11%
    18:00 +38°C° 0 mm 4 mps 681 mmHg 13%
    19:00 +36°C° 0 mm 4 mps 681 mmHg 15%
    20:00 +34°C° 0 mm 3 mps 681 mmHg 17%
    21:00 +32°C° 0 mm 2 mps 682 mmHg 18%
    22:00 +32°C° 0 mm 2 mps 682 mmHg 19%
    23:00 +31°C° 0 mm 1 mps 682 mmHg 20%

    Tomorrow, 14 December, Friday

    Time Temperature Precipitation Wind Pressure Humidity
    00:00 +30°C° 0 mm 2 mps 682 mmHg 20%
    01:00 +29°C° 0 mm 2 mps 682 mmHg 21%
    02:00 +29°C° 0 mm 3 mps 682 mmHg 22%
    03:00 +28°C° 0 mm 3 mps 682 mmHg 23%
    04:00 +27°C° 0 mm 3 mps 682 mmHg 25%
    05:00 +26°C° 0 mm 3 mps 682 mmHg 26%
    06:00 +28°C° 0 mm 3 mps 683 mmHg 25%
    07:00 +30°C° 0 mm 3 mps 683 mmHg 24%
    08:00 +32°C° 0 mm 4 mps 684 mmHg 23%
    09:00 +35°C° 0 mm 4 mps 684 mmHg 20%
    10:00 +37°C° 0 mm 4 mps 685 mmHg 17%
    11:00 +40°C° 0 mm 5 mps 685 mmHg 14%
    12:00 +41°C° 0 mm 5 mps 684 mmHg 12%
    13:00 +42°C° 0 mm 5 mps 684 mmHg 11%
    14:00 +43°C° 0 mm 5 mps 683 mmHg 10%
    15:00 +42°C° 0 mm 6 mps 683 mmHg 10%
    16:00 +42°C° 0 mm 6 mps 682 mmHg 10%
    17:00 +42°C° 0 mm 6 mps 681 mmHg 10%
    18:00 +40°C° 0 mm 5 mps 681 mmHg 12%
    19:00 +37°C° 0 mm 4 mps 681 mmHg 14%
    20:00 +35°C° 0 mm 2 mps 681 mmHg 16%
    21:00 +34°C° 0 mm 3 mps 682 mmHg 17%
    22:00 +33°C° 0 mm 3 mps 682 mmHg 18%
    23:00 +33°C° 0 mm 4 mps 683 mmHg 19%

    Day after tomorrow, 15 December, Saturday

    Time Temperature Precipitation Wind Pressure Humidity
    00:00 +32°C° 0 mm 4 mps 683 mmHg 22%
    01:00 +32°C° 0 mm 4 mps 683 mmHg 26%
    02:00 +30°C° 0 mm 5 mps 682 mmHg 29%
    03:00 +29°C° 0 mm 4 mps 682 mmHg 31%
    04:00 +28°C° 0 mm 4 mps 682 mmHg 32%
    05:00 +27°C° 0 mm 4 mps 682 mmHg 34%
    06:00 +28°C° 0 mm 4 mps 683 mmHg 34%
    07:00 +29°C° 0 mm 5 mps 683 mmHg 34%
    08:00 +30°C° 0 mm 6 mps 684 mmHg 34%
    09:00 +33°C° 0 mm 5 mps 684 mmHg 29%
    10:00 +35°C° 0 mm 4 mps 684 mmHg 25%
    11:00 +37°C° 0 mm 4 mps 685 mmHg 21%
    12:00 +38°C° 0 mm 4 mps 684 mmHg 18%
    13:00 +41°C° 0 mm 4 mps 683 mmHg 15%
    14:00 +42°C° 0 mm 4 mps 683 mmHg 12%
    15:00 +42°C° 0 mm 5 mps 682 mmHg 12%
    16:00 +41°C° 0 mm 5 mps 681 mmHg 12%
    17:00 +41°C° 0 mm 6 mps 681 mmHg 12%
    18:00 +39°C° 0 mm 5 mps 681 mmHg 15%
    19:00 +36°C° 0 mm 4 mps 681 mmHg 17%
    20:00 +34°C° 0 mm 3 mps 681 mmHg 19%
    21:00 +33°C° 0 mm 3 mps 682 mmHg 20%
    22:00 +33°C° 0 mm 3 mps 682 mmHg 21%
    23:00 +31°C° 0 mm 2 mps 682 mmHg 22%

    16 December, Sunday

    Time Temperature Precipitation Wind Pressure Humidity
    00:00 +30°C° 0 mm 3 mps 682 mmHg 24%
    01:00 +30°C° 0 mm 3 mps 682 mmHg 26%
    02:00 +30°C° 0 mm 4 mps 681 mmHg 27%
    03:00 +29°C° 0 mm 4 mps 681 mmHg 29%
    04:00 +28°C° 0 mm 4 mps 682 mmHg 31%
    05:00 +28°C° 0 mm 4 mps 682 mmHg 33%
    06:00 +29°C° 0 mm 4 mps 682 mmHg 31%
    07:00 +30°C° 0 mm 5 mps 683 mmHg 28%
    08:00 +32°C° 0 mm 5 mps 684 mmHg 26%
    09:00 +34°C° 0 mm 5 mps 684 mmHg 23%
    10:00 +36°C° 0 mm 4 mps 684 mmHg 20%
    11:00 +40°C° 0 mm 4 mps 684 mmHg 16%
    12:00 +41°C° 0 mm 4 mps 683 mmHg 13%
    13:00 +42°C° 0 mm 4 mps 682 mmHg 11%
    14:00 +43°C° 0 mm 4 mps 681 mmHg 8%
    15:00 +42°C° 0 mm 5 mps 681 mmHg 8%
    16:00 +42°C° 0 mm 5 mps 680 mmHg 8%
    17:00 +42°C° 0 mm 5 mps 679 mmHg 7%
    18:00 +38°C° 0 mm 4 mps 680 mmHg 9%
    19:00 +36°C° 0 mm 4 mps 680 mmHg 11%
    20:00 +34°C° 0 mm 3 mps 680 mmHg 13%
    21:00 +33°C° 0 mm 3 mps 680 mmHg 14%
    22:00 +33°C° 0 mm 3 mps 681 mmHg 15%
    23:00 +31°C° 0 mm 2 mps 681 mmHg 16%

    17 December, Monday

    Time Temperature Precipitation Wind Pressure Humidity
    00:00 +30°C° 0 mm 2 mps 681 mmHg 18%
    01:00 +29°C° 0 mm 2 mps 680 mmHg 20%
    02:00 +29°C° 0 mm 2 mps 680 mmHg 22%
    03:00 +28°C° 0 mm 2 mps 680 mmHg 26%
    04:00 +27°C° 0 mm 2 mps 680 mmHg 29%
    05:00 +27°C° 0 mm 2 mps 680 mmHg 33%
    06:00 +28°C° 0 mm 3 mps 681 mmHg 34%
    07:00 +30°C° 0 mm 4 mps 682 mmHg 36%
    08:00 +32°C° 0 mm 5 mps 683 mmHg 37%
    09:00 +34°C° 0 mm 4 mps 683 mmHg 34%
    10:00 +36°C° 0 mm 4 mps 683 mmHg 30%
    11:00 +38°C° 0 mm 4 mps 683 mmHg 27%
    12:00 +39°C° 0 mm 3 mps 682 mmHg 23%
    13:00 +40°C° 0 mm 3 mps 681 mmHg 20%
    14:00 +42°C° 0 mm 3 mps 681 mmHg 16%
    15:00 +40°C° 0 mm 3 mps 680 mmHg 17%
    16:00 +39°C° 0 mm 3 mps 680 mmHg 17%
    17:00 +39°C° 0 mm 2 mps 679 mmHg 18%
    18:00 +37°C° 0 mm 2 mps 679 mmHg 19%
    19:00 +36°C° 0 mm 2 mps 680 mmHg 21%
    20:00 +34°C° 0 mm 2 mps 680 mmHg 22%
    21:00 +32°C° 0 mm 1 mps 680 mmHg 24%
    22:00 +31°C° 0 mm 1 mps 680 mmHg 25%
    23:00 +31°C° 0 mm 1 mps 680 mmHg 27%

    18 December, Tuesday

    Time Temperature Precipitation Wind Pressure Humidity
    00:00 +30°C° 0 mm 1 mps 680 mmHg 29%
    01:00 +29°C° 0 mm 1 mps 679 mmHg 31%
    02:00 +28°C° 0 mm 2 mps 679 mmHg 33%
    03:00 +28°C° 0 mm 2 mps 679 mmHg 37%
    04:00 +27°C° 0 mm 2 mps 679 mmHg 42%
    05:00 +27°C° 0 mm 3 mps 679 mmHg 46%
    06:00 +28°C° 0 mm 3 mps 680 mmHg 47%
    07:00 +29°C° 0 mm 4 mps 681 mmHg 48%
    08:00 +29°C° 0 mm 4 mps 682 mmHg 49%
    09:00 +33°C° 0 mm 4 mps 682 mmHg 42%
    10:00 +35°C° 0 mm 4 mps 682 mmHg 36%
    11:00 +37°C° 0 mm 3 mps 682 mmHg 29%
    12:00 +38°C° 0 mm 3 mps 681 mmHg 25%
    13:00 +40°C° 0 mm 3 mps 681 mmHg 22%
    14:00 +41°C° 0 mm 2 mps 680 mmHg 18%
    15:00 +40°C° 0 mm 2 mps 679 mmHg 18%
    16:00 +39°C° 0 mm 2 mps 679 mmHg 19%
    17:00 +39°C° 0 mm 2 mps 678 mmHg 20%
    18:00 +37°C° 0 mm 2 mps 679 mmHg 22%
    19:00 +36°C° 0 mm 2 mps 679 mmHg 24%
    20:00 +34°C° 0 mm 2 mps 679 mmHg 26%
    21:00 +34°C° 0 mm 2 mps 679 mmHg 28%
    22:00 +33°C° 0 mm 3 mps 679 mmHg 30%
    23:00 +31°C° 0 mm 3 mps 679 mmHg 32%
    Show more